World > North America > United States > Washington > Brownstown  

Brownstown, WA Hourly Weather Updates

Feedback E-mail the Weather

Quick Clicks

Brownstown, WA Weather Maps

°F °C°F °C
Brownstown Weather Map
UTC Time: 7/21/2024, 00:10
Your Time:

Brownstown, WA Regional Weather

Expires:202407210000;;012359
ASUS46 KSEW 202320
RWRWA 

WASHINGTON REGIONAL WEATHER ROUNDUP
NATIONAL WEATHER SERVICE SEATTLE WA
400 PM PDT SAT JUL 20 2024

NOTE:"FAIR" INDICATES FEW OR NO CLOUDS BELOW 12,000 FEET WITH NO 
SIGNIFICANT WEATHER AND/OR OBSTRUCTIONS TO VISIBILITY.


WAZ026-027-041>044-520-521-210000-
EAST SLOPES
  
CITY           SKY/WX    TMP DP  RH WIND       PRES   REMARKS
OMAK           MOSUNNY  102  42  13 SW8       30.04F HX  97  TC  39   
WENATCHEE      SUNNY     98  44  15 E6        30.01F HX  94  TC  37   
ELLENSBURG     SUNNY     99  40  13 E6        30.05F HX  94  TC  37   
YAKIMA         SUNNY     99  45  15 VRB6      30.01F HX  95  TC  37   
SUNNYSIDE ARPT SUNNY     98  47  18 CALM      29.99F HX  94  TC  37   
YAKIMA TC      FAIR     100  38  11 W6        29.98F HX  94  TC  38   
$$


SKY/WX - Weather  TMP - Temperature  DP - Dew Point  RH - Humidity
WIND - Wind Direction/Speed PRES - Barometric Pressure VSB - Visibility
WCI - Wind Chill Index E13G22 Wind - East Wind 13 mph/Gusts of 22 mph

Trending Headlines

Trending Entertainment Headlines

Brownstown Radar Loop

Use the map search tool if you want to place a location marker on the radar map...

Brownstown Quick Facts

National Two Day Weather Forecast


E-mail the Brownstown Weather Forecast

Voice your opinion or tell us about page issues...